Theta_e
310 311 312 312 309 311 311 312 313 313 312 312 311 310 311 308 304 304 304 303 303 303 303 303 303 305 306 309 312 313 312 314 315 317 317 317 318 318 319 319 320 320 319 318
311 311 311 311 311 311 313 314 312 311 311 311 311 311 309 308 306 307 307 306 304 303 299 300 302 305 306 309 312 312 311 313 314 314 314 315 314 313 314 314 315 315 315 313
312 313 311 312 312 313 312 312 312 313 312 309 310 311 310 309 308 306 306 307 306 305 302 299 301 303 305 308 311 311 310 311 311 311 311 310 308 306 305 304 307 307 306 304
312 312 313 312 313 312 313 310 312 313 315 316 311 317 312 310 309 307 308 306 306 304 302 300 301 302 304 308 310 311 309 308 310 310 309 311 307 301 299 300 300 299 297 295
313 313 313 314 313 312 314 311 312 313 313 312 312 313 313 311 311 310 310 309 307 304 301 300 301 302 303 307 309 309 308 308 310 308 308 305 301 299 299 297 294 292 291 290
310 310 312 313 312 312 310 312 311 310 311 315 313 314 314 312 313 311 311 309 305 302 300 299 302 302 303 307 308 308 307 306 308 306 304 303 303 298 294 292 291 289 288 289
312 312 310 310 312 311 312 314 316 315 314 317 311 312 315 312 311 310 311 309 306 300 298 298 300 302 303 305 306 307 306 302 303 303 303 302 300 298 297 293 291 288 287 287
313 313 311 309 313 314 312 313 315 314 315 314 312 316 315 309 308 307 306 306 302 298 297 298 300 302 302 303 304 305 302 301 302 302 301 299 298 295 291 292 290 288 288 287
313 314 310 309 310 312 311 314 312 315 299 309 313 312 311 309 309 308 307 305 300 299 297 298 299 301 301 302 303 303 302 301 302 301 300 298 296 293 291 290 288 288 287 287
313 314 311 310 311 310 311 310 315 312 313 312 314 314 316 315 312 309 309 306 302 298 297 296 298 299 299 301 301 301 301 301 300 299 299 298 295 293 290 288 288 287 286 286
312 313 312 310 311 313 312 313 312 312 311 314 314 318 310 313 312 311 309 307 303 298 296 295 296 297 298 299 299 300 299 298 297 297 296 294 292 290 289 288 287 287 286 286
311 314 310 312 309 308 311 313 312 315 314 313 314 319 310 311 310 309 309 307 302 298 295 294 294 294 294 295 296 297 296 296 297 296 294 292 291 289 288 287 287 286 286 286
314 317 318 318 314 309 311 312 313 313 310 318 316 319 305 308 309 308 306 305 300 297 294 292 292 292 292 293 293 294 294 295 296 295 293 291 290 289 288 287 287 286 285 285
316 316 316 323 319 313 312 311 311 315 317 317 317 319 315 311 309 309 307 304 300 297 294 293 292 292 292 292 292 292 293 293 295 294 292 290 289 289 288 287 286 286 285 285
317 318 317 316 315 313 312 313 313 315 315 318 319 317 317 314 307 307 309 304 300 298 294 293 293 292 292 291 291 291 291 292 293 291 290 289 289 288 287 287 286 285 285 284
316 315 315 319 317 315 316 312 311 313 315 315 316 317 315 312 310 310 308 307 302 300 297 295 294 292 291 291 290 290 290 290 290 289 289 288 287 287 286 286 285 284 284 284
316 317 318 323 316 316 318 317 317 312 313 314 316 315 314 313 309 310 310 307 304 302 300 298 295 294 292 292 291 290 290 289 289 289 288 288 287 287 286 285 284 284 283 283
313 317 317 322 318 322 318 313 315 316 315 311 312 313 313 312 310 309 307 307 305 302 300 299 297 295 293 292 291 290 289 289 288 288 287 287 287 286 285 284 284 283 283 283
311 313 317 321 322 319 316 309 311 315 317 315 315 314 314 313 307 312 304 304 305 303 302 301 300 297 294 292 291 289 288 288 288 287 287 287 286 285 285 284 283 283 283 282
306 312 314 316 322 324 314 305 304 309 318 301 312 314 313 306 311 314 300 297 298 297 298 299 299 297 294 291 290 288 287 287 287 287 287 286 287 286 285 285 284 283 283 283
308 311 314 316 319 315 309 298 302 315 314 292 297 299 302 305 307 298 295 296 294 295 295 296 295 293 292 291 290 287 287 287 287 287 287 287 287 286 286 285 284 283 283 283
310 312 313 315 317 316 302 300 309 305 295 295 296 298 298 298 297 295 295 295 293 293 292 292 291 290 290 290 288 287 286 287 287 287 287 286 286 285 285 285 284 284 284 284
311 306 309 312 312 300 296 300 296 296 297 296 297 297 296 295 296 295 295 293 290 289 290 291 291 289 288 289 289 287 287 287 287 287 286 286 286 286 286 288 287 286 285 284
303 300 307 309 304 300 296 294 294 292 292 291 291 292 294 294 292 291 288 291 290 287 289 291 291 289 288 288 289 289 289 289 290 289 289 289 288 288 287 287 286 285 283 282
302 300 302 301 300 297 297 295 295 293 290 290 290 291 291 291 288 289 287 285 287 285 287 291 291 289 288 290 290 291 292 292 291 290 289 287 287 286 285 285 285 285 285 284
297 300 303 305 301 303 301 296 294 292 291 290 291 290 288 289 289 287 285 285 285 285 286 288 288 288 287 289 289 289 288 288 288 287 286 286 286 285 284 283 282 281 281 281
Wind_Speed
2 3 7 13 9 4 5 4 6 4 3 4 8 10 14 8 7 10 12 13 14 17 17 26 27 24 21 20 20 20 21 22 25 28 29 27 26 24 23 22 21 20 21 21
4 7 13 3 5 4 1 3 6 6 4 6 9 13 11 6 9 14 17 17 17 15 8 18 29 28 27 26 25 24 24 26 29 31 29 28 29 25 25 24 23 22 23 23
8 5 5 8 4 5 6 7 5 8 4 4 4 8 9 9 12 8 15 17 14 19 17 13 22 32 31 30 29 28 28 29 30 31 30 29 27 27 24 25 26 24 24 24
7 4 6 5 6 9 8 8 7 4 1 5 2 9 6 6 12 9 16 15 21 16 9 13 23 26 34 34 30 30 30 32 32 32 33 37 34 27 26 30 28 26 26 28
8 8 6 6 7 9 6 5 6 2 3 2 3 4 5 2 8 13 17 17 16 12 15 18 25 31 32 34 34 31 31 32 34 33 34 36 28 24 33 31 31 30 29 29
4 1 6 7 3 7 6 5 5 4 2 5 12 11 6 6 13 6 12 13 10 11 10 9 19 24 29 33 31 30 34 34 34 34 34 36 38 34 38 36 36 34 32 31
3 6 4 4 5 3 3 6 3 4 1 8 3 5 15 7 6 10 12 13 4 6 8 9 13 20 26 32 31 34 36 35 36 35 36 38 37 40 45 44 42 39 36 34
10 7 12 8 13 8 9 9 6 8 4 5 1 8 6 10 9 8 9 8 5 7 8 12 15 22 25 30 32 34 37 36 37 36 37 37 37 41 42 46 46 43 41 37
7 7 2 2 4 11 6 9 4 2 2 2 5 7 8 9 9 10 12 3 5 8 8 10 13 21 25 29 33 37 37 36 38 38 37 38 39 43 45 44 45 43 39 37
4 3 1 1 4 4 6 8 3 1 3 5 6 7 9 6 9 11 13 7 8 7 7 7 10 18 23 28 32 35 36 38 38 37 38 39 41 43 44 44 43 41 39 37
4 4 2 3 7 11 3 4 2 4 5 5 3 8 7 9 11 9 8 9 7 8 8 8 10 17 24 29 34 37 35 34 36 39 38 38 41 44 43 44 42 41 40 37
8 3 4 8 2 2 1 6 7 5 5 4 2 18 5 3 4 6 7 5 2 6 7 7 11 19 24 28 32 34 35 36 38 39 38 39 43 43 44 44 42 41 40 38
8 3 1 3 2 3 5 5 15 2 3 16 6 12 3 2 4 4 6 3 5 6 8 8 9 15 21 24 28 32 34 36 39 40 41 42 45 46 46 45 43 43 42 40
10 6 8 10 3 5 7 9 11 17 7 10 19 29 14 5 6 4 6 4 6 7 10 10 10 13 21 25 29 31 34 36 40 41 42 44 48 49 49 47 46 45 42 40
10 7 9 14 7 1 3 8 18 18 30 12 33 19 31 16 9 11 7 6 7 8 9 11 13 13 21 24 27 32 36 40 42 40 41 43 46 47 46 47 47 45 43 41
10 5 7 12 18 13 13 9 16 25 28 24 31 25 14 5 5 5 10 8 8 8 10 12 12 11 21 27 30 30 33 38 41 38 39 37 39 42 44 45 46 44 42 41
9 6 6 16 6 8 8 29 21 11 18 21 22 36 30 18 9 12 15 5 8 11 13 11 14 17 25 31 33 34 35 34 38 37 38 41 42 44 45 44 43 43 42 39
4 14 9 12 4 10 12 4 20 23 24 17 21 26 25 16 12 13 4 7 11 8 10 12 12 20 28 29 32 31 34 37 38 35 36 40 42 41 41 42 43 42 42 41
9 4 4 7 15 7 11 6 7 12 20 26 24 26 27 23 6 21 10 10 11 10 11 14 21 21 22 30 31 31 31 32 33 33 37 39 39 38 40 40 42 43 41 39
8 12 6 4 7 10 10 3 3 7 12 5 18 23 21 5 4 14 5 6 8 8 13 12 13 19 25 27 32 31 29 30 32 35 34 36 41 41 41 43 42 42 41 39
5 6 16 13 9 3 5 5 2 7 8 5 5 4 7 6 6 2 6 7 5 6 10 5 13 20 24 28 33 25 25 27 27 29 32 36 38 38 39 39 37 37 34 33
10 11 6 7 7 7 9 6 7 4 2 4 4 4 5 5 6 5 5 5 6 5 5 4 11 13 18 25 27 22 21 22 25 29 30 30 30 28 28 30 30 28 30 30
3 4 4 8 6 1 4 2 4 2 3 2 2 2 1 2 3 2 2 4 4 5 6 7 12 14 16 21 24 20 17 19 22 23 24 24 24 26 28 29 30 30 34 31
3 2 2 1 4 5 5 4 1 2 3 1 1 1 2 2 0 2 3 2 2 4 4 9 12 11 12 16 17 17 19 20 21 23 25 26 28 29 30 30 30 30 30 30
3 7 6 5 4 3 6 6 6 6 5 4 3 2 2 1 1 1 1 2 2 3 5 7 10 11 11 12 11 9 13 17 22 22 22 24 26 27 29 30 32 34 35 35
5 7 5 5 5 4 2 3 6 8 7 6 6 3 3 1 3 3 3 3 3 7 8 10 11 15 14 13 12 10 10 13 17 18 19 21 23 24 26 27 23 21 25 24
Wind_Direction
21 114 203 212 200 164 152 189 232 240 237 180 229 241 255 228 218 232 237 233 230 231 230 220 212 208 207 206 202 199 191 195 192 182 173 167 165 165 166 166 169 173 173 176
55 229 225 145 175 197 205 230 252 285 239 190 262 258 247 220 229 219 228 233 229 232 199 198 205 204 205 204 202 197 192 193 191 186 179 176 167 163 161 163 162 168 167 163
177 210 153 158 160 170 228 214 232 232 325 238 299 265 239 246 237 235 239 238 232 224 213 191 191 201 204 204 200 196 193 194 191 189 181 173 163 155 152 153 153 158 161 157
236 240 147 170 194 163 243 207 209 239 59 252 45 287 242 236 250 228 245 230 238 225 200 191 192 195 201 203 200 197 194 191 194 192 185 179 167 159 164 160 154 154 155 150
228 179 175 187 195 173 224 141 176 194 200 349 207 271 251 227 261 255 252 242 239 217 196 194 195 196 196 200 197 196 193 195 197 196 193 180 167 172 163 158 152 153 153 151
229 172 174 197 132 163 138 85 54 55 88 261 211 210 214 199 223 246 251 254 233 209 200 191 190 183 187 196 190 187 192 195 195 194 189 185 183 170 160 159 156 156 154 151
137 219 192 152 101 48 139 102 311 324 352 249 6 223 252 284 238 220 247 260 262 158 163 167 172 178 177 182 182 186 190 191 196 196 196 193 188 179 171 167 165 160 157 156
188 263 169 190 197 168 196 164 167 213 212 279 227 239 253 231 262 247 257 278 136 166 179 187 187 183 180 179 182 184 185 186 193 197 197 196 192 181 176 173 170 168 165 161
172 258 218 196 145 162 197 210 177 51 94 350 234 280 282 259 277 266 253 161 182 212 194 188 181 184 180 180 183 186 186 190 193 197 197 196 193 186 181 176 173 170 166 162
222 276 194 192 96 26 161 160 85 2 213 257 267 271 232 256 249 256 263 238 227 212 191 177 179 180 181 185 188 191 192 193 194 198 200 199 196 192 185 179 175 172 169 165
163 150 304 128 215 166 137 186 141 139 163 193 304 262 213 219 217 229 260 251 230 195 195 183 178 181 184 187 191 193 195 194 194 199 199 196 194 191 186 182 179 176 172 170
201 165 197 203 260 267 56 204 164 162 209 238 168 266 180 207 248 195 254 322 230 183 182 173 175 175 184 190 192 194 195 196 198 198 198 197 195 190 187 186 183 180 178 177
159 178 274 320 18 345 214 207 205 162 77 225 164 264 32 337 272 258 254 202 183 169 174 171 173 186 188 192 195 196 197 197 201 200 199 196 194 191 190 188 187 185 184 180
114 180 206 224 193 144 193 199 204 204 220 215 230 250 250 206 240 254 241 250 216 198 189 189 189 195 196 195 195 196 199 200 203 201 198 197 197 195 192 191 190 190 188 185
153 225 219 249 284 199 231 215 201 206 226 206 251 243 256 244 223 230 259 223 198 210 204 202 198 199 196 197 197 198 199 201 202 196 196 198 199 198 195 193 193 192 191 190
176 221 199 255 248 227 238 233 223 221 230 229 252 257 241 179 229 208 236 235 218 222 222 218 209 196 200 199 200 197 197 197 196 192 195 195 196 196 197 197 196 195 195 195
184 186 175 253 182 214 239 234 228 222 230 219 238 246 262 267 231 249 259 250 238 228 227 222 209 206 203 201 198 197 195 191 192 191 191 194 195 195 198 198 197 197 198 199
212 204 197 245 133 228 240 165 217 220 234 214 239 255 258 251 249 257 219 231 254 245 227 224 215 212 209 202 198 196 190 188 189 190 189 193 194 194 195 199 199 199 202 202
195 185 247 224 226 255 286 213 155 176 245 229 227 246 262 271 336 281 215 232 249 249 247 238 229 220 198 193 192 185 185 187 187 189 191 192 191 189 195 196 198 202 204 205
200 214 201 214 240 233 262 182 154 106 251 176 194 230 249 95 256 274 347 330 308 300 280 257 228 194 190 189 184 176 181 183 191 193 191 189 195 196 197 201 200 203 207 208
176 200 216 227 246 267 246 160 208 140 236 181 176 169 151 183 215 250 305 309 314 311 317 273 183 174 183 180 181 173 177 190 192 192 194 198 201 198 202 201 202 204 207 211
179 174 188 209 220 245 172 87 199 217 35 146 195 183 183 221 278 304 313 327 351 12 35 125 138 145 170 176 174 169 181 189 188 191 192 193 195 190 191 198 204 209 216 221
201 188 187 196 203 64 214 264 188 132 134 148 130 145 214 250 250 307 302 10 19 27 44 104 139 138 162 177 183 162 171 177 180 182 185 192 200 204 204 212 217 212 220 219
261 128 258 10 247 213 211 213 109 91 91 95 219 192 206 204 230 324 329 357 33 27 62 125 132 127 133 167 174 179 177 182 188 198 203 209 209 207 211 214 213 209 208 212
186 153 178 256 245 290 235 213 173 169 169 162 130 95 20 291 234 186 124 40 53 58 80 131 143 144 142 159 163 169 184 187 187 192 195 199 199 199 203 208 210 214 224 226
188 183 168 221 207 175 194 188 177 172 182 181 151 121 88 158 164 126 101 94 102 98 114 113 119 128 133 138 142 157 179 189 190 191 198 204 207 209 213 213 211 219 231 233